Regional Weather Roundup
Issued by NWS

Home | Current Version | Previous Version | Text Only | Print | Product List | Glossary On
Versions: 1 2 3 4 5 6 7 8 9 10 11 12 13 14 15 16 17 18 19 20 21 22 23 24 25 26 27 28 29 30 31 32 33 34 35 36 37 38 39 40 41 42 43 44 45 46 47 48 49 50
000
ASUS45 KBOU 271207
RWRCO

WEATHER ROUNDUP FOR COLORADO
NATIONAL WEATHER SERVICE DENVER/BOULDER CO
600 AM MDT MON APR 27 2015

NOTE: "FAIR" INDICATES FEW OR NO CLOUDS BELOW 12000 FEET WITH NO
SIGNIFICANT WEATHER AND/OR OBSTRUCTIONS TO VISIBILITY.

COZ001>005-013-030-031-271300-
...NORTHWEST COLORADO...

CITY           SKY/WX    TMP DP  RH WIND       PRES   REMARKS
CRAIG          CLOUDY    40  38  93 SW5       30.11R
HAYDEN         CLOUDY    37  36  93 W5        30.10R
MEEKER         CLOUDY    40  38  93 S3        30.10R
MOUNT WERNER   NOT AVBL
STEAMBOAT SPGS CLOUDY    35  35  99 CALM      30.10R
WALDEN         PTCLDY    23  21  93 E5        30.14R WCI  17
$$

COZ006>008-011-271300-
...WEST CENTRAL VALLEYS...

CITY           SKY/WX    TMP DP  RH WIND       PRES   REMARKS
GRAND JUNCTION PTCLDY    43  39  86 N6        30.04R
MONTROSE       CLOUDY    42  39  89 CALM      30.08R
EAGLE          PTCLDY    32  32 100 CALM      30.12R
RIFLE          CLOUDY    41  38  89 E3        30.07R
DELTA          CLOUDY    41  40  94 MISG      30.06R
NUCLA          PTCLDY    36  34  93 E7        30.07R
$$

COZ017>023-064>068-271300-
...SOUTHWEST COLORADO...

CITY           SKY/WX    TMP DP  RH WIND       PRES   REMARKS
DURANGO        PTCLDY    30  30 100 CALM      29.99R FOG
CORTEZ         CLEAR     32  31  96 E3        30.00R
PAGOSA SPRINGS CLEAR     40  29  64 NE7       30.01R
TELLURIDE      CLOUDY    32  31  94 CALM      30.09R
WOLF CREEK PAS NOT AVBL
$$

COZ009-010-012-014-032>034-037-058>063-271300-
...CENTRAL COLORADO...

CITY           SKY/WX    TMP DP  RH WIND       PRES   REMARKS
ASPEN          PTCLDY    31  29  92 CALM      30.08R
BUENA VISTA    FLURRIES  33  32  96 SE8       30.13R WCI  26
COPPER MTN     CLOUDY    28  21  74 E6        30.18R WCI  22
BERTHOUD PASS  HAZE      19  12  73 E12G17    30.21R VSB<1/4 WCI   7
COTTONWOOD PAS LGT SNOW  32  30  93 SE6       30.14R WCI  26
GUNNISON       PTCLDY    30  27  86 CALM      30.11R
KREMMLING      CLEAR     28  27  93 CALM      30.14R
LEADVILLE      LGT SNOW  25  24  96 CALM      30.14R FOG
SALIDA         CLOUDY    36  34  94 CALM      30.19S
SUNLIGHT       CLOUDY    30  30 100 NE3       30.18R
WILKERSON PASS CLOUDY   N/A N/A N/A NE7       30.19R FOG
$$

COZ069>075-271300-
...SAN LUIS VALLEY/SANGRE DE CRISTO MOUNTAINS...

CITY           SKY/WX    TMP DP  RH WIND       PRES   REMARKS
ALAMOSA        PTCLDY    35  29  78 N8        30.03R WCI  29
LA VETA PASS   LGT SNOW  27  25  93 MISG      30.08R VSB 3/4
SAGUACHE       MOCLDY    36  30  80 NW9       30.06R
$$

COZ035-036-038>040-271300-
...NORTHERN COLORADO FRONT RANGE...

CITY           SKY/WX    TMP DP  RH WIND       PRES   REMARKS
DENVER INTL AP LGT RAIN  38  38 100 NE8       30.16R VSB 1/2
DMNS CITY PARK   N/A     39  38  96 NE3G10    30.17R
AURORA         DRIZZLE   37  37 100 NE8       30.16R FOG
FRONT RANGE AP LGT RAIN  37  37 100 NE7       30.16R
ERIE MUNI ARPT DRIZZLE   40  40  99 N3        30.17R
BOULDER MUN AP CLOUDY    39  39 100 CALM      30.17R
CENTENNIAL     LGT RAIN  38  37  97 N9        30.15R FOG
BROOMFIELD     FOG       41  41 100 N7        30.16S VSB 1
FORT COLLINS   CLOUDY    39  37  93 NE6       30.19R
LONGMONT       CLOUDY    42  40  93 NE5       30.20R
$$

COZ041-046-047-076>085-087-088-271300-
...PIKES PEAK/PALMER DIVIDE AND SOUTHERN FOOTHILLS...

CITY           SKY/WX    TMP DP  RH WIND       PRES   REMARKS
COLO. SPRINGS  CLOUDY    40  36  86 NE7       30.13R
A. F. ACADEMY  CLOUDY    36  36  99 N14       30.12R
ELLICOTT       CLOUDY   N/A N/A N/A E18       30.12R
FALCON         CLOUDY    36  35  96 N16       30.12S
FORT CARSON    DRIZZLE   39  37  93 N9        30.11R
LIMON          LGT RAIN  35  35 100 NW8       30.14R FOG     WCI  29
MONUMENT HILL  LGT RAIN  32  32 100 N8        30.13R WCI  25
TRINIDAD       LGT RAIN  39  38  96 N17G24    30.05R FOG
$$

COZ042>045-048>051-090-091-271300-
...NORTHEAST COLORADO...

CITY           SKY/WX    TMP DP  RH WIND       PRES   REMARKS
GREELEY ARPT   CLOUDY    39  34  81 NE7       30.19R
AKRON          CLOUDY    41  40  96 E10       30.16R FOG
BURLINGTON     CLOUDY    43  40  89 NE16      30.12R
WRAY           CLOUDY    45  45 100 NE6       30.16S
STERLING       CLOUDY    43  43 100 E5        30.17R FOG
HOLYOKE        CLOUDY    45  41  87 NE5       30.18R
FORT MORGAN    CLOUDY    41  40  96 E10       30.17R FOG
$$

COZ086-089-092>099-271300-
...SOUTHEAST COLORADO...

CITY           SKY/WX    TMP DP  RH WIND       PRES   REMARKS
PUEBLO         LGT RAIN  43  41  93 NE10      30.11R FOG
LA JUNTA       CLOUDY    43  40  89 MISG      30.08R
LAMAR          CLOUDY    43  42  97 NE13      30.05R
SPRINGFIELD      N/A     40  40 100 NE20      30.00R
$$


USA.gov is the U.S. government's official web portal to all federal, state and local government web resources and services.